This is the latest recevied weather packets stored in our database for station/object KQ4UPF. If no packets are shown the sender has not sent any weather packets the latest 10 day(s).
| Time | Temp. | Humidity | Pressure | Rain* | Wind** | Luminosity | Snow |
|---|---|---|---|---|---|---|---|
| 1778063940 | 20.56° C | 77% | 1012.1 hPa | 0 mm | - | 0 W/m² | - |
| 1778063637 | 20.56° C | 77% | 1012 hPa | 0 mm | - | 0 W/m² | - |
| 1778063334 | 20.56° C | 77% | 1012.2 hPa | 0 mm | - | 0 W/m² | - |
| 1778063032 | 20.56° C | 77% | 1012 hPa | 0 mm | - | 0 W/m² | - |
| 1778062729 | 20.56° C | 75% | 1012 hPa | 0 mm | - | 0 W/m² | - |
| 1778062425 | 20.56° C | 75% | 1011.8 hPa | 0 mm | - | 0 W/m² | - |
| 1778062123 | 20.56° C | 75% | 1011.7 hPa | 0 mm | - | 0 W/m² | - |
| 1778061821 | 20.56° C | 75% | 1011.4 hPa | 0 mm | - | 0 W/m² | - |
| 1778061519 | 21.11° C | 75% | 1011.6 hPa | 0 mm | - | 0 W/m² | - |
| 1778061216 | 21.11° C | 74% | 1011.5 hPa | 0 mm | - | 0 W/m² | - |
| 1778060913 | 21.11° C | 74% | 1011.1 hPa | 0 mm | - | 0 W/m² | - |
| 1778060612 | 21.11° C | 74% | 1011.4 hPa | 0 mm | - | 0 W/m² | - |
| 1778060309 | 21.11° C | 74% | 1011.5 hPa | 0 mm | - | 0 W/m² | - |
| 1778060006 | 21.11° C | 74% | 1011.5 hPa | 0 mm | - | 0 W/m² | - |
| 1778059704 | 21.11° C | 73% | 1011.7 hPa | 0 mm | - | 0 W/m² | - |
| 1778059402 | 21.11° C | 73% | 1011.4 hPa | 0 mm | - | 0 W/m² | - |
| 1778059098 | 21.11° C | 73% | 1011.5 hPa | 0 mm | - | 0 W/m² | - |
| 1778058796 | 20.56° C | 73% | 1011.8 hPa | 0 mm | - | 0 W/m² | - |
| 1778058494 | 21.11° C | 75% | 1011.5 hPa | 0 mm | - | 0 W/m² | - |
| 1778058191 | 21.11° C | 72% | 1011.6 hPa | 0 mm | - | 0 W/m² | - |
| 1778057887 | 21.11° C | 71% | 1011.7 hPa | 0 mm | - | 0 W/m² | - |
| 1778057583 | 21.11° C | 71% | 1011.6 hPa | 0 mm | - | 0 W/m² | - |
| 1778057280 | 21.11° C | 72% | 1011.3 hPa | 0 mm | - | 0 W/m² | - |
| 1778056976 | 21.11° C | 73% | 1011.4 hPa | 0 mm | - | 0 W/m² | - |
| 1778056674 | 21.11° C | 72% | 1011.5 hPa | 0 mm | - | 0 W/m² | - |
* Rain latest hour (hover to see other rain measurements)
** Current wind speed in m/s (hover to see current wind gust speed)